Weather History for Moriarty, NM

Change the Weather History Date:

Thursday, February 14, 2013

  Actual Average (KABQ) Record (KABQ)
Temperature  
Mean Temperature 32 °F 41 °F  
Max Temperature 52 °F 52 °F 73 °F (1979)
Min Temperature 13 °F 30 °F 6 °F (1895)
Degree Days  
Heating Degree Days 32 24  
Month to date heating degree days 353  
Since 1 July heating degree days 2995  
Cooling Degree Days 0 0  
Month to date cooling degree days 0  
Year to date cooling degree days 0  
Moisture  
Dew Point 14 °F    
Average Humidity 49    
Maximum Humidity 85    
Minimum Humidity 16    
Precipitation  
Precipitation 0.00 in 0.02 in 0.51 in (1993)
Month to date precipitation 0.23  
Year to date precipitation 0.61  
Snow  
Snow 0.00 in - - ()
Month to date snowfall  
Since 1 July snowfall  
Snow Depth -    
Sea Level Pressure  
Sea Level Pressure 30.10 in    
Wind  
Wind Speed 9 mph (NNW)    
Max Wind Speed 23 mph    
Max Gust Speed 30 mph    
Visibility 10 miles    
Events      
T = Trace of Precipitation, MM = Missing Value Source: NWS Daily Summary

Daily Weather History Graph

Daily Weather History Graph

Search for Another Location

Airport:

Trip Planner

Search our weather history database for the weather conditions in past years. The results will help you decide how hot, cold, wet, or windy it might be!

Date:

Astronomy

Feb. 14, 2013 Rise Set
Actual Time 6:50 AM MST 5:46 PM MST
Civil Twilight 6:24 AM MST 6:12 PM MST
Nautical Twilight 5:55 AM MST 6:41 PM MST
Astronomical Twilight 5:25 AM MST 7:11 PM MST
Moon 9:07 AM MST (2/14) 10:37 PM MST (2/14)
Length of Visible Light 11h 47m
Length of Day
10h 55m
Waxing Crescent, 22% of the Moon is Illuminated
Feb 14
Waxing Crescent
Feb 17
First Quarter
Feb 25
Full
Mar 4
Last Quarter
Mar 11
New

Hourly Weather History & Observations

Time (MST) Temp. Windchill Dew Point Humidity Pressure Visibility Wind Dir Wind Speed Gust Speed Precip Events Conditions
12:15 AM 33.8 °F 26.4 °F 14.9 °F 46% 30.08 in 10.0 mi NW 9.2 mph - N/A   Clear
12:35 AM 33.6 °F 25.0 °F 14.9 °F 46% 30.08 in 10.0 mi NW 11.5 mph - N/A   Clear
12:55 AM 34.2 °F 25.7 °F 15.1 °F 46% 30.09 in 10.0 mi NW 11.5 mph 18.4 mph N/A   Clear
1:15 AM 32.7 °F 25.0 °F 14.7 °F 48% 30.08 in 10.0 mi WNW 9.2 mph - N/A   Clear
1:35 AM 30.4 °F 22.9 °F 14.0 °F 51% 30.08 in 10.0 mi NNW 8.1 mph - N/A   Clear
1:55 AM 28.2 °F 18.9 °F 13.8 °F 55% 30.08 in 10.0 mi NW 10.4 mph - N/A   Clear
2:15 AM 26.4 °F 18.9 °F 13.1 °F 57% 30.07 in 10.0 mi NNW 6.9 mph - N/A   Clear
2:35 AM 23.2 °F 15.0 °F 11.7 °F 61% 30.07 in 10.0 mi ENE 6.9 mph - N/A   Clear
2:55 AM 22.1 °F 14.7 °F 12.4 °F 66% 30.07 in 10.0 mi North 5.8 mph - N/A   Clear
3:15 AM 19.9 °F 11.1 °F 11.7 °F 70% 30.07 in 10.0 mi North 6.9 mph - N/A   Clear
3:35 AM 20.3 °F - 12.7 °F 73% 30.08 in 10.0 mi Calm Calm - N/A   Clear
3:55 AM 20.8 °F 14.4 °F 12.4 °F 70% 30.07 in 10.0 mi NNW 4.6 mph - N/A   Clear
4:15 AM 19.6 °F 10.6 °F 12.2 °F 73% 30.07 in 10.0 mi North 6.9 mph - N/A   Clear
4:35 AM 18.7 °F 9.5 °F 12.0 °F 75% 30.07 in 10.0 mi North 6.9 mph - N/A   Clear
5:15 AM 17.4 °F - 11.8 °F 79% 30.08 in 10.0 mi Calm Calm - N/A   Clear
5:35 AM 16.3 °F 9.2 °F 11.1 °F 80% 30.08 in 10.0 mi ENE 4.6 mph - N/A   Clear
5:55 AM 17.2 °F 10.2 °F 11.5 °F 78% 30.08 in 10.0 mi NNE 4.6 mph - N/A   Clear
6:15 AM 13.8 °F 6.2 °F 9.0 °F 81% 30.08 in 10.0 mi North 4.6 mph - N/A   Clear
6:35 AM 14.2 °F 6.7 °F 9.3 °F 81% 30.08 in 10.0 mi NE 4.6 mph - N/A   Clear
6:55 AM 14.0 °F 5.1 °F 10.2 °F 85% 30.09 in 10.0 mi NE 5.8 mph - N/A   Clear
7:15 AM 15.1 °F 9.4 °F 10.9 °F 84% 30.09 in 10.0 mi ENE 3.5 mph - N/A   Clear
7:35 AM 18.7 °F 9.5 °F 13.6 °F 81% 30.10 in 10.0 mi ENE 6.9 mph - N/A   Clear
7:55 AM 24.1 °F 19.7 °F 16.3 °F 72% 30.11 in 10.0 mi ENE 3.5 mph - N/A   Clear
8:15 AM 28.4 °F 24.6 °F 18.1 °F 65% 30.11 in 10.0 mi NE 3.5 mph - N/A   Clear
8:35 AM 32.0 °F 28.7 °F 18.3 °F 57% 30.11 in 10.0 mi NNE 3.5 mph - N/A   Clear
8:55 AM 34.2 °F 30.0 °F 18.0 °F 52% 30.11 in 10.0 mi North 4.6 mph - N/A   Clear
9:15 AM 36.9 °F 32.2 °F 17.8 °F 46% 30.11 in 10.0 mi NNE 5.8 mph - N/A   Clear
9:35 AM 38.5 °F 33.4 °F 17.2 °F 42% 30.11 in 10.0 mi North 6.9 mph - N/A   Clear
9:55 AM 40.5 °F 36.5 °F 16.9 °F 39% 30.11 in 10.0 mi North 5.8 mph - N/A   Clear
10:15 AM 41.4 °F 37.6 °F 16.5 °F 37% 30.10 in 10.0 mi North 5.8 mph - N/A   Clear
10:35 AM 42.3 °F 35.9 °F 16.2 °F 35% 30.10 in 10.0 mi NNW 11.5 mph 17.3 mph N/A   Clear
10:55 AM 44.2 °F 38.8 °F 16.0 °F 32% 30.10 in 10.0 mi NNW 10.4 mph 19.6 mph N/A   Clear
11:15 AM 45.5 °F 39.2 °F 15.6 °F 30% 30.08 in 10.0 mi NNW 13.8 mph 18.4 mph N/A   Clear
11:35 AM 46.6 °F - 15.6 °F 29% 30.07 in 10.0 mi NNW 19.6 mph 27.6 mph N/A   Clear
11:55 AM 46.9 °F - 15.6 °F 29% 30.07 in 10.0 mi NNW 16.1 mph 25.3 mph N/A   Clear
12:15 PM 48.2 °F - 14.5 °F 26% 30.06 in 10.0 mi NW 15.0 mph 25.3 mph N/A   Clear
12:35 PM 48.6 °F - 14.7 °F 26% 30.05 in 10.0 mi NW 13.8 mph 19.6 mph N/A   Clear
12:55 PM 49.3 °F - 14.2 °F 25% 30.04 in 10.0 mi NW 10.4 mph 18.4 mph N/A   Clear
1:15 PM 50.7 °F - 11.7 °F 21% 30.04 in 10.0 mi WNW 11.5 mph 18.4 mph N/A   Clear
1:35 PM 51.1 °F - 10.9 °F 20% 30.03 in 10.0 mi NW 13.8 mph 24.2 mph N/A   Clear
1:55 PM 51.3 °F - 10.8 °F 20% 30.02 in 10.0 mi WNW 16.1 mph 20.7 mph N/A   Clear
2:15 PM 52.2 °F - 7.3 °F 16% 30.02 in 10.0 mi WNW 12.7 mph 21.9 mph N/A   Clear
2:35 PM 51.4 °F - 7.0 °F 17% 30.04 in 10.0 mi WNW 15.0 mph 25.3 mph N/A   Clear
2:55 PM 51.1 °F - 11.1 °F 20% 30.04 in 10.0 mi WNW 17.3 mph 28.8 mph N/A   Clear
3:15 PM 50.7 °F - 14.0 °F 23% 30.05 in 10.0 mi West 12.7 mph 24.2 mph N/A   Clear
3:35 PM 49.8 °F - 13.8 °F 24% 30.06 in 10.0 mi WNW 19.6 mph 26.5 mph N/A   Clear
3:55 PM 48.9 °F - 13.8 °F 25% 30.06 in 10.0 mi WNW 23.0 mph 29.9 mph N/A   Clear
4:15 PM 48.2 °F - 14.0 °F 25% 30.07 in 10.0 mi WNW 19.6 mph 27.6 mph N/A   Clear
4:35 PM 47.5 °F - 14.0 °F 26% 30.08 in 10.0 mi WNW 16.1 mph 25.3 mph N/A   Clear
4:55 PM 46.4 °F 39.8 °F 14.0 °F 27% 30.07 in 10.0 mi WNW 16.1 mph 23.0 mph N/A   Clear
5:15 PM 45.0 °F 37.6 °F 13.8 °F 29% 30.07 in 10.0 mi NW 17.3 mph 24.2 mph N/A   Clear
5:35 PM 42.8 °F 35.4 °F 14.0 °F 31% 30.08 in 10.0 mi WNW 15.0 mph - N/A   Clear
5:55 PM 40.6 °F 33.4 °F 14.0 °F 34% 30.09 in 10.0 mi WNW 12.7 mph - N/A   Clear
6:15 PM 38.7 °F 32.9 °F 14.0 °F 37% 30.10 in 10.0 mi West 8.1 mph - N/A   Clear
6:35 PM 37.4 °F 29.8 °F 14.5 °F 39% 30.11 in 10.0 mi WNW 11.5 mph - N/A   Clear
6:55 PM 35.2 °F 27.1 °F 14.7 °F 43% 30.11 in 10.0 mi NW 11.5 mph - N/A   Clear
7:15 PM 34.7 °F 25.9 °F 14.9 °F 44% 30.11 in 10.0 mi NW 12.7 mph - N/A   Clear
7:35 PM 33.1 °F 24.9 °F 14.9 °F 47% 30.11 in 10.0 mi WNW 10.4 mph - N/A   Clear
7:55 PM 32.4 °F - 14.9 °F 49% 30.12 in 10.0 mi Calm Calm - N/A   Clear
8:15 PM 30.9 °F - 14.4 °F 50% 30.13 in 10.0 mi Calm Calm - N/A   Clear
8:35 PM 29.3 °F 20.8 °F 14.0 °F 53% 30.15 in 10.0 mi NNE 9.2 mph - N/A   Clear
8:55 PM 30.4 °F 24.5 °F 14.9 °F 53% 30.15 in 10.0 mi NNW 5.8 mph - N/A   Clear
9:15 PM 28.0 °F 24.2 °F 14.5 °F 57% 30.17 in 10.0 mi ENE 3.5 mph - N/A   Clear
9:35 PM 26.6 °F 22.6 °F 13.6 °F 58% 30.18 in 10.0 mi ESE 3.5 mph - N/A   Clear
9:55 PM 24.1 °F 16.0 °F 13.6 °F 64% 30.19 in 10.0 mi East 6.9 mph - N/A   Clear
10:15 PM 24.6 °F 20.3 °F 13.1 °F 62% 30.22 in 10.0 mi NNE 3.5 mph - N/A   Clear
10:35 PM 30.0 °F 21.7 °F 17.4 °F 59% 30.23 in 10.0 mi East 9.2 mph - N/A   Clear
10:55 PM 30.2 °F 22.6 °F 19.0 °F 63% 30.24 in 10.0 mi East 8.1 mph - N/A   Clear
11:15 PM 29.1 °F 24.1 °F 20.5 °F 70% 30.24 in 10.0 mi East 4.6 mph - N/A   Clear
11:35 PM 30.6 °F 21.2 °F 22.6 °F 72% 30.24 in 10.0 mi ENE 11.5 mph 18.4 mph N/A   Clear
11:55 PM 29.1 °F 25.4 °F 21.4 °F 73% 30.26 in 10.0 mi West 3.5 mph - N/A   Clear